DELTA 1 DEB, 10707

Orbit data source: Space-Track

DELTA 1 DEB, 10707 is space debris in LEO originally from a launch on Thu, 29 Jul 1976 UTC launched from the Air Force Western Test Range (AFWTR). Debris objects in space refer to the collection of defunct objects orbiting the Earth. Examples of debris include non-operational satellites, rocket bodies, and fragments generated from explosions, collisions, or faulty payload assembly.

Loading next visibility...
Identifier
10707, 1976-077AC
Orbit
LEO
Country
Flag of USUS
Related business
Manufacturer
Unknown
Mission
Spacecraft
Bus & Motor
Unknown
Mass
Unknown
Launch date (UTC)
1976-07-29 (49 years ago)
Launch vehicle
Unknown
Launch site
Air Force Western Test Range (AFWTR)
Object type
Payload
Rocket body
Debris
Shape & HBR
Unknown shape, 0.1 m
Radar Cross Section
Small (<0.1 m²)

Expand to show TLE details & history
Last TLE update: 4 days ago

TLE from 4 days ago
0 DELTA 1 DEB
1 10707U 76077AC  25289.30718056  .00000497  00000-0  61455-2 0  9991
2 10707 102.2083 312.5676 0263480 359.0872  14.5291 11.98318796123146
Epoch: 2025-10-16T07:22Z
TLE epoch observation values (Epoch: 2025-10-16T07:22:20.400Z)
Latitude
14.0414°
Longitude
173.82729°
Altitude
1,484.763 km
Speed
7.212 km/s
True Right ascension
20h 37m 55s
True Declination
13° 58' 05"
Sunlit
Object was in daylight at epoch
Visualization orbit readout
Latitude
Unknown
Longitude
Unknown
Altitude
Unknown
Speed
Unknown
Apparent Right ascension
Unknown
Apparent Declination
Unknown
Sunlit
N/A
Visualization observer readout
Local Sidereal Time
15:36:17
Azimuth
Unknown
Elevation
Unknown
Doppler factor
Unknown
Orbital elements
Apogee altitude
1,898.51 km
Perigee altitude
1,473.561 km
Semi-major axis
8,064.173 km
Eccentricity
0.02635
Inclination
102.2083°
RAAN
312.5676°
Arg. of periapsis
359.0872°
True anomaly
15.31143°
Mean anomaly
14.5291°
Eccentric anomaly
14.91773°
Mean motion
2.99712 °/min
Orbital period
120.12 mins
BSTAR
0.0061455
Loading maneuver chart data...
Computing Atmospheric mass density...
Loading historical data...
Loading historical data...
Loading historical data...
Loading historical data...
Loading historical data...
Loading historical data...
Loading historical data...

Documentation

Showing up to 5 results
|